Terug naar catalogus

FENGYUN 1C DEB

ActiefSSO
NORAD 31228·DEBRIS·🇨🇳 China

Gelanceerd May 10, 1999 vanaf Taiyuan Satellite Launch Center

Loading…

Volgende Passages (komende 24 uur)

TLE

VersSource: Space-Track

Epoch: Sep 14, 2026, 12:27 UTC

1 31228U 99025BLJ 26257.51927226  .00001003  00000-0  33783-3 0  9998
2 31228  98.8666 182.8951 0077879 353.6750  60.6493 14.37692357 15283

Volg FENGYUN 1C DEB in realtime met AllMySat

Download on the App Store